Weather History for KSPI - July, 2014

Change the Weather History Date:

Thursday, July 10, 2014

  Actual Average Record
Temperature  
Mean Temperature 70 °F 76 °F  
Max Temperature 82 °F 87 °F 105 °F (1966)
Min Temperature 57 °F 66 °F 49 °F (1996)
Degree Days  
Heating Degree Days 0 0  
Month to date heating degree days 0 0  
Since 1 June heating degree days 0 15  
Since 1 July heating degree days 0 0  
Cooling Degree Days 5 11  
Month to date cooling degree days 74 110  
Year to date cooling degree days 556 454  
Since 1 June cooling degree days 380 350  
Growing Degree Days 20 (Base 50)    
Moisture  
Dew Point 57 °F    
Average Humidity 68    
Maximum Humidity 93    
Minimum Humidity 42    
Precipitation  
Precipitation 0.00 in 0.13 in 2.62 in (1971)
Month to date precipitation 0.46 1.30  
Year to date precipitation 23.62 19.77  
Snow  
Snow 0.00 in 0.00 in 0.00 in ()
Month to date snowfall 0.0 0.0  
Since 1 June snowfall 0.0 0.0  
Since 1 July snowfall 0.0 0.0  
Snow Depth 0.00 in    
Sea Level Pressure  
Sea Level Pressure 30.13 in    
Wind  
Wind Speed 5 mph (East)    
Max Wind Speed 13 mph    
Max Gust Speed 17 mph    
Visibility 10 miles    
Events      
T = Trace of Precipitation, MM = Missing Value Source: NWS Daily Summary

Daily Weather History Graph

Daily Weather History Graph

Search for Another Location

Airport or City:

Trip Planner

Search our weather history database for the weather conditions in past years. The results will help you decide how hot, cold, wet, or windy it might be!

Date:

Astronomy

Jul. 10, 2014 Rise Set
Actual Time 5:39 AM CDT 8:28 PM CDT
Civil Twilight 5:07 AM CDT 9:00 PM CDT
Nautical Twilight 4:26 AM CDT 9:40 PM CDT
Astronomical Twilight 3:40 AM CDT 10:26 PM CDT
Moon 6:41 PM CDT (7/10) 3:50 AM CDT (7/10)
Length of Visible Light 15h 53m
Length of Day
14h 49m
Waxing Gibbous, 95% of the Moon is Illuminated
Jul 10
Waxing Gibbous
Jul 12
Full
Jul 18
Last Quarter
Jul 26
New
Aug 3
First Quarter

Hourly Weather History & Observations

Time (CDT) Temp. Heat Index Dew Point Humidity Pressure Visibility Wind Dir Wind Speed Gust Speed Precip Events Conditions
12:52 AM 60.1 °F - 57.9 °F 93% 30.08 in 10.0 mi Calm Calm - N/A   Clear
1:52 AM 59.0 °F - 57.0 °F 93% 30.08 in 10.0 mi Calm Calm - N/A   Clear
2:52 AM 59.0 °F - 55.4 °F 88% 30.09 in 10.0 mi Calm Calm - N/A   Clear
3:52 AM 57.9 °F - 55.9 °F 93% 30.08 in 10.0 mi Calm Calm - N/A   Clear
4:52 AM 57.2 °F - 55.4 °F 94% 30.09 in 10.0 mi Calm Calm - N/A   Clear
5:52 AM 57.9 °F - 54.0 °F 87% 30.09 in 10.0 mi ENE 3.5 mph - N/A   Clear
6:52 AM 62.1 °F - 57.9 °F 86% 30.12 in 10.0 mi Calm Calm - N/A   Clear
7:52 AM 68.0 °F - 60.8 °F 78% 30.15 in 10.0 mi SSE 4.6 mph - N/A   Clear
8:52 AM 73.0 °F - 60.1 °F 64% 30.15 in 10.0 mi ESE 6.9 mph - N/A   Clear
9:52 AM 77.0 °F - 60.1 °F 56% 30.16 in 10.0 mi Variable 4.6 mph - N/A   Clear
10:52 AM 79.0 °F - 57.9 °F 48% 30.16 in 10.0 mi East 8.1 mph - N/A   Clear
11:52 AM 80.1 °F 80.6 °F 57.9 °F 47% 30.17 in 10.0 mi East 6.9 mph - N/A   Clear
12:52 PM 81.0 °F 80.7 °F 55.0 °F 41% 30.16 in 10.0 mi ENE 6.9 mph - N/A   Clear
1:52 PM 82.0 °F 82.0 °F 57.9 °F 44% 30.14 in 10.0 mi East 9.2 mph - N/A   Clear
2:52 PM 81.0 °F 81.0 °F 57.0 °F 44% 30.13 in 10.0 mi ENE 8.1 mph - N/A   Partly Cloudy
3:52 PM 82.0 °F 82.0 °F 57.9 °F 44% 30.12 in 10.0 mi ENE 8.1 mph - N/A   Scattered Clouds
4:52 PM 82.0 °F 82.0 °F 57.9 °F 44% 30.12 in 10.0 mi NE 11.5 mph - N/A   Clear
5:52 PM 80.1 °F 80.1 °F 55.0 °F 42% 30.12 in 10.0 mi ENE 4.6 mph - N/A   Clear
6:52 PM 79.0 °F - 54.0 °F 42% 30.11 in 10.0 mi ENE 11.5 mph - N/A   Clear
7:52 PM 75.9 °F - 55.9 °F 50% 30.12 in 10.0 mi ENE 8.1 mph - N/A   Clear
8:52 PM 70.0 °F - 57.0 °F 63% 30.12 in 10.0 mi ESE 5.8 mph - N/A   Clear
9:52 PM 64.0 °F - 59.0 °F 84% 30.14 in 10.0 mi Calm Calm - N/A   Clear
10:52 PM 66.0 °F - 59.0 °F 78% 30.15 in 10.0 mi ESE 4.6 mph - N/A   Clear
11:52 PM 61.0 °F - 57.0 °F 87% 30.16 in 10.0 mi ENE 3.5 mph - N/A   Clear